[[{"header":{"parameterUnit":"m.s-1","parameterCategory":1,"la1":30.2991,"la2":30.254,"lo1":-89.0895,"lo2":-89.0444,"dy":0.0017,"dx":0.0017,"nx":28,"ny":28,"refTime":"2024-02-08T03:00:00:Z","depth":0,"parameterNumber":2,"parameterNumberName":"U-component_of_WINDS"},"data":[0,0,0,0,0,0,0,0,0,0,0,0,0,0,0,0,0,0,0,0,0,0,0,0,0,0,0,0,0,0,0,0,0,0,0,0,0,0,0,0,0,0,0,0,0,0,0,0,0,0,0,0,0,0,0,0,0,0,-4.2737,-4.2738,0,-4.278,-4.2781,-4.2781,-4.2687,-4.2684,-4.2681,-4.2678,-4.2725,-4.2729,-4.2733,0,0,0,0,0,0,0,0,0,0,0,0,0,-4.2577,-4.258,-4.2737,-4.2738,-4.2738,-4.278,-4.2781,-4.2782,-4.2688,-4.2684,-4.268,-4.2677,-4.2724,-4.2728,-4.2733,0,0,0,0,0,0,0,0,0,0,0,0,0,-4.2636,-4.2582,-4.2737,-4.2697,-4.2693,-4.278,-4.2781,-4.2782,-4.2689,-4.2684,-4.2679,-4.2675,-4.2722,-4.2728,-4.2734,-4.2863,0,0,-4.2752,-4.2755,0,0,0,0,0,0,0,0,-4.2633,-4.2642,-4.2702,-4.27,-4.2696,-4.2724,-4.2741,-4.2809,-4.269,-4.2691,-4.2678,-4.2673,-4.2728,-4.2734,-4.2752,-4.2865,-4.2867,-4.2753,-4.2757,-4.2759,-4.2761,0,0,0,0,0,0,0,-4.2629,-4.264,-4.2754,-4.2703,-4.27,-4.2677,-4.2681,-4.2754,-4.2735,-4.269,-4.2683,-4.269,-4.2726,-4.2746,-4.2752,-4.2868,-4.2753,-4.2758,-4.2762,-4.2764,-4.3089,-4.3094,0,0,0,0,0,0,-4.263,-4.2637,-4.2753,-4.2756,-4.2653,-4.2684,-4.2688,-4.272,-4.2733,-4.2731,-4.2694,-4.2685,-4.2738,-4.2745,-4.2753,-4.2905,-4.2759,-4.2765,-4.2769,-4.3084,-4.309,-4.3096,0,0,0,0,0,0,-4.2627,-4.2641,-4.2751,-4.2695,-4.2707,-4.2691,-4.2728,-4.2723,-4.2743,-4.2736,-4.2732,-4.2717,-4.2735,-4.2745,-4.2836,-4.2905,-4.2768,-4.2773,-4.3079,-4.3086,-4.3093,-4.3209,0,0,0,0,0,0,-4.2622,-4.264,-4.2688,-4.2696,-4.271,-4.2833,-4.2732,-4.2727,-4.2753,-4.2743,-4.2758,-4.2756,-4.2732,-4.2828,-4.2842,-4.2911,-4.2778,-4.3072,-4.3082,-4.3091,-4.3199,-4.322,-4.3237,0,0,0,0,0,-4.2617,-4.272,-4.2691,-4.2706,-4.277,-4.2837,-4.2845,-4.2815,-4.2759,-4.2808,-4.2804,-4.2755,-4.2896,-4.2838,-4.2853,-4.2925,-4.3068,-4.3079,-4.309,-4.3191,-4.3216,-4.3237,0,0,0,0,0,0,-4.272,-4.272,-4.2688,-4.2796,-4.2817,-4.2821,-4.2881,-4.2842,-4.288,-4.2868,-4.283,-4.2835,-4.2933,-4.2939,-4.2874,-4.3051,-4.2972,-4.2987,-4.3044,-4.3067,-4.3086,-4.3082,-4.2783,0,0,0,0,0,-4.2756,-4.2809,-4.2806,-4.2902,-4.2914,-4.2896,-4.2924,-4.2899,-4.292,-4.2928,-4.2931,-4.2953,-4.3002,-4.3035,-4.308,-4.32,-4.3202,-4.3258,-4.3277,-4.3293,-4.3305,-4.3369,-4.3394,-4.3133,-4.3132,-4.3132,0,0,-4.2829,-4.2835,-4.2872,-4.2923,-4.2936,-4.2993,-4.2904,-4.2968,-4.301,-4.2938,-4.3024,-4.3027,-4.305,-4.3156,-4.3203,-4.3164,-4.3378,-4.3307,-4.3319,-4.3324,-4.3383,-4.3408,-4.343,-4.314,-4.3139,-4.3138,0,0,-4.2991,-4.3002,-4.3083,-4.3098,-4.312,-4.3107,-4.3127,-4.3137,-4.3136,-4.3222,-4.3169,-4.3219,-4.3305,-4.3323,-4.3344,-4.3516,-4.3473,-4.3532,-4.3631,-4.3694,-4.3715,-4.3733,-4.3794,-4.3816,-4.3545,-4.3546,-4.3546,0,-4.308,-4.3163,-4.3129,-4.3197,-4.3222,-4.3159,-4.3241,-4.3258,-4.3294,-4.3313,-4.3268,-4.3375,-4.3386,-4.3495,-4.3537,-4.3557,-4.3578,-4.3529,-4.3715,-4.3732,-4.3749,-4.3806,-4.3829,-4.3553,-4.3552,-4.3551,-4.355,0,-4.3271,-4.333,-4.3393,-4.3428,-4.346,-4.3535,-4.3513,-4.355,-4.3524,-4.3516,-4.3605,-4.3617,-4.3663,-4.3687,-4.3662,-4.3794,-4.3769,-4.3721,-4.364,-4.3781,-4.3835,-4.3856,-4.3563,-4.356,-4.3558,-4.3556,0,0,-4.3497,-4.3514,-4.3538,-4.3553,-4.3573,-4.3618,-4.3692,-4.3736,-4.3768,-4.3796,-4.3856,-4.3931,-4.3886,-4.391,-4.3887,-4.3942,-4.4078,-4.3887,-4.3886,-4.3921,-4.4224,-4.4259,-4.4285,-4.405,-4.4054,-4.4058,-4.4222,0,-4.3657,-4.3781,-4.3754,-4.3876,-4.393,-4.3873,-4.3937,-4.3957,-4.3953,-4.3999,-4.3995,-4.4048,-4.3986,-4.4,-4.4052,-4.405,-4.4138,-4.4038,-4.4106,-4.4109,-4.41,-4.4313,-4.435,-4.4505,-4.4242,-4.4246,-4.4249,0,-4.3859,-4.3894,-4.4022,-4.4034,-4.4056,-4.4113,-4.4153,-4.4198,-4.422,-4.4213,-4.4241,-4.4207,-4.4281,-4.4202,-4.4303,-4.4235,-4.4262,-4.4266,-4.4271,-4.4274,-4.4186,-4.4322,-4.4553,-4.4576,-4.4281,-4.4279,-4.4276,0,-4.4011,-4.409,-4.4176,-4.4191,-4.4208,-4.425,-4.4259,-4.4277,-4.4306,-4.4341,-4.4359,-4.4404,-4.4427,-4.4463,-4.4442,-4.4387,-4.4547,-4.4466,-4.4544,-4.4544,-4.4578,-4.4576,-4.4816,-4.4599,-4.4598,-4.4598,-4.4597,0,-4.4191,-4.4271,-4.4244,-4.4297,-4.4386,-4.4355,-4.4444,-4.4447,-4.4463,-4.4517,-4.4471,-4.4522,-4.4493,-4.4543,-4.4528,-4.4614,-4.4625,-4.4622,-4.4617,-4.4625,-4.4625,-4.4641,-4.4629,-4.4604,-4.4602,-4.4601,-4.46,0,-4.4373,-4.4358,-4.4449,-4.4458,-4.4462,-4.4527,-4.4535,-4.4585,-4.4579,-4.4647,-4.4661,-4.4652,-4.4707,-4.4691,-4.4752,-4.4742,-4.4851,-4.4833,-4.4843,-4.4838,-4.4916,-4.4908,-4.5172,-4.5205,-4.4968,-4.4971,-4.4972,0,-4.4488,-4.4548,-4.4564,-4.4596,-4.4609,-4.4662,-4.4691,-4.4664,-4.4697,-4.4728,-4.4775,-4.4827,-4.4866,-4.4959,-4.4958,-4.5005,-4.4986,-4.5076,-4.4993,-4.5,-4.4986,-4.4982,-4.4988,-4.5092,-4.5095,-4.5097,-4.5099,0,-4.4694,-4.4684,-4.4728,-4.477,-4.4807,-4.4839,-4.4867,-4.4896,-4.4872,-4.4911,-4.4968,-4.4999,-4.5061,-4.5113,-4.5157,-4.5167,-4.5129,-4.5125,-4.5145,-4.5153,-4.5156,-4.5155,-4.4886,-4.5119,-4.5117,-4.5115,-4.5114,-4.5113,-4.4845,-4.4896,-4.4915,-4.4966,-4.4985,-4.5012,-4.506,-4.506,-4.5106,-4.5154,-4.5136,-4.5201,-4.5224,-4.5277,-4.5294,-4.5345,-4.531,-4.534,-4.5347,-4.5354,-4.5364,-4.515,-4.5353,-4.5352,-4.5352,-4.5351,-4.5351,0,-4.5047,-4.5057,-4.5104,-4.5145,-4.5185,-4.5147,-4.5177,-4.5213,-4.527,-4.5294,-4.5335,-4.5401,-4.5452,-4.5456,-4.5504,-4.5544,-4.5528,-4.5557,-4.5553,-4.5556,-4.5392,-4.5369,-4.5569,-4.5569,-4.5569,-4.5569,-4.5569,-4.5569,-4.5156,-4.5241,-4.5234,-4.5327,-4.5337,-4.54,-4.542,-4.5446,-4.5464,-4.554,-4.5582,-4.5584,-4.56,-4.5649,-4.5695,-4.5695,-4.5714,-4.575,-4.5744,-4.559,-4.5568,-4.5547,-4.5525,-4.5755,-4.5755,-4.5903,-4.5904,-4.5905]},{"header":{"parameterUnit":"m.s-1","parameterCategory":1,"la1":30.2991,"la2":30.254,"lo1":-89.0895,"lo2":-89.0444,"dy":0.0017,"dx":0.0017,"nx":28,"ny":28,"refTime":"2024-02-08T03:00:00:Z","depth":0,"parameterNumber":3,"parameterNumberName":"V-component_of_WINDS"},"data":[0,0,0,0,0,0,0,0,0,0,0,0,0,0,0,0,0,0,0,0,0,0,0,0,0,0,0,0,0,0,0,0,0,0,0,0,0,0,0,0,0,0,0,0,0,0,0,0,0,0,0,0,0,0,0,0,0,0,0.9881,0.9882,0,0.9923,0.9923,0.9924,0.9925,0.9924,0.9924,0.9923,0.9966,0.9967,0.9969,0,0,0,0,0,0,0,0,0,0,0,0,0,0.9806,0.9807,0.9881,0.9882,0.9882,0.9923,0.9923,0.9924,0.9925,0.9924,0.9924,0.9923,0.9965,0.9967,0.9969,0,0,0,0,0,0,0,0,0,0,0,0,0,0.9842,0.9808,0.9881,0.9888,0.9889,0.9922,0.9923,0.9924,0.9925,0.9924,0.9924,0.9923,0.9965,0.9967,0.9969,0.9999,0,0,0.9976,0.9978,0,0,0,0,0,0,0,0,0.984,0.9845,0.9886,0.9888,0.9889,0.9918,0.9912,0.9949,0.9925,0.9911,0.9923,0.9923,0.995,0.9954,0.9963,1.0001,1.0003,0.9977,0.9978,0.9979,0.998,0,0,0,0,0,0,0,0.9837,0.9843,0.9898,0.9887,0.9888,0.989,0.9894,0.9919,0.9935,0.9913,0.9913,0.9918,0.9951,0.9961,0.9964,1.0003,0.9977,0.9979,0.998,0.9981,1.007,1.0071,0,0,0,0,0,0,0.9833,0.9841,0.9896,0.9899,0.9862,0.9891,0.9896,0.9909,0.9934,0.9937,0.9918,0.9918,0.9957,0.9961,0.9966,1.0004,0.9979,0.9981,0.9983,1.007,1.0071,1.0072,0,0,0,0,0,0,0.9832,0.9838,0.9895,0.987,0.9877,0.9894,0.9908,0.991,0.9921,0.9939,0.9941,0.9926,0.9957,0.9962,0.9991,1.0006,0.9982,0.9985,1.0068,1.007,1.0071,1.008,0,0,0,0,0,0,0.983,0.9838,0.9848,0.987,0.9879,0.9919,0.9909,0.9912,0.9925,0.9924,0.9946,0.9949,0.9957,0.9988,0.9994,1.0008,0.9986,1.0067,1.0069,1.0071,1.0078,1.0081,1.0084,0,0,0,0,0,0.9827,0.9849,0.9849,0.9856,0.9892,0.992,0.9925,0.9933,0.9926,0.9937,0.9949,0.9948,1.0003,0.9991,0.9997,1.0013,1.0066,1.0069,1.0071,1.0077,1.0081,1.0084,0,0,0,0,0,0,0.9827,0.9851,0.9852,0.9881,0.9899,0.992,0.9934,0.9936,0.9955,0.9954,0.9963,0.9968,0.9998,1.0008,0.9994,1.0045,1.0034,1.0038,1.0037,1.004,1.0043,1.004,0.9988,0,0,0,0,0,0.9831,0.9851,0.9871,0.9895,0.9904,0.9918,0.993,0.9935,0.9953,0.996,0.9974,0.9992,1.0014,1.0027,1.0048,1.008,1.0086,1.0094,1.0097,1.0099,1.0102,1.0123,1.0127,1.0079,1.0079,1.0079,0,0,0.9838,0.9854,0.9866,0.9896,0.9909,0.9931,0.9924,0.9946,0.9962,0.9964,0.9992,1.0004,1.0024,1.0056,1.007,1.0065,1.0117,1.0102,1.0104,1.0105,1.0125,1.013,1.0134,1.008,1.008,1.008,0,0,0.9863,0.9876,0.9899,0.9913,0.9935,0.9945,0.995,0.9972,0.998,1.0009,1.0011,1.0031,1.0067,1.0083,1.0095,1.0129,1.013,1.0135,1.015,1.017,1.0173,1.0177,1.0191,1.0195,1.0138,1.0138,1.0138,0,0.9869,0.9901,0.991,0.9933,0.9947,0.9951,0.9974,0.9988,1.0015,1.0025,1.002,1.0067,1.0081,1.0117,1.0126,1.0135,1.0143,1.0133,1.0172,1.0176,1.0179,1.0192,1.0197,1.0139,1.0139,1.0139,1.0139,0,0.9909,0.9932,0.9947,0.9975,0.999,1.0013,1.0027,1.0042,1.0047,1.0057,1.0088,1.0106,1.0131,1.014,1.0143,1.0177,1.0174,1.017,1.016,1.0184,1.0197,1.0202,1.014,1.014,1.014,1.0139,0,0,0.9934,0.9968,0.9973,0.9987,1.0012,1.003,1.0055,1.008,1.0094,1.0113,1.0134,1.0166,1.0164,1.0178,1.0184,1.0201,1.023,1.0196,1.0197,1.0203,1.027,1.0274,1.0279,1.023,1.0231,1.0232,1.0269,0,0.9962,1.0006,1.0016,1.0053,1.0076,1.008,1.0102,1.0121,1.0132,1.0153,1.0165,1.0188,1.0182,1.0192,1.0209,1.0222,1.0244,1.022,1.0252,1.0253,1.0247,1.0286,1.0289,1.0323,1.0274,1.0275,1.0275,0,1.0001,1.0022,1.0063,1.0088,1.0097,1.0116,1.0142,1.0161,1.0183,1.0191,1.0208,1.0213,1.024,1.0229,1.0267,1.0251,1.0265,1.0274,1.0276,1.0279,1.0266,1.0292,1.0333,1.0339,1.0283,1.0282,1.0282,0,1.0017,1.0056,1.0086,1.0097,1.0126,1.014,1.0153,1.0174,1.019,1.0212,1.0223,1.0248,1.0262,1.0282,1.0294,1.0284,1.0332,1.0321,1.034,1.034,1.035,1.0349,1.0396,1.0357,1.0357,1.0357,1.0357,0,1.0048,1.0073,1.0094,1.0112,1.0141,1.0153,1.0181,1.0194,1.0213,1.0235,1.0241,1.0261,1.0276,1.0299,1.0309,1.034,1.0346,1.0354,1.0356,1.0354,1.0353,1.0363,1.0361,1.0359,1.0358,1.0358,1.0358,0,1.0071,1.0085,1.0118,1.0144,1.0152,1.0172,1.0194,1.0213,1.0225,1.0253,1.0261,1.028,1.0308,1.0322,1.0356,1.0363,1.0399,1.0399,1.0391,1.0393,1.0411,1.041,1.0467,1.0476,1.043,1.0431,1.0431,0,1.009,1.0109,1.0138,1.0154,1.0167,1.0191,1.0208,1.0221,1.0238,1.0266,1.0282,1.031,1.0334,1.0378,1.0395,1.0422,1.0424,1.0442,1.0428,1.0426,1.0426,1.0425,1.0428,1.0445,1.0445,1.0445,1.0446,0,1.0123,1.013,1.0153,1.018,1.02,1.0222,1.0243,1.0256,1.0273,1.0292,1.0321,1.0339,1.0375,1.0403,1.0432,1.0446,1.045,1.045,1.0456,1.0454,1.045,1.0454,1.04,1.0449,1.0449,1.0448,1.0448,1.0448,1.0146,1.0164,1.0188,1.0215,1.0233,1.0253,1.0273,1.0289,1.0313,1.0343,1.035,1.0381,1.0405,1.0444,1.046,1.0485,1.0481,1.0489,1.0492,1.0494,1.0495,1.0445,1.049,1.049,1.049,1.0489,1.0489,0,1.018,1.0197,1.0221,1.0252,1.0274,1.0275,1.03,1.0318,1.0345,1.0367,1.0391,1.0425,1.0454,1.0474,1.0504,1.052,1.0522,1.0527,1.0527,1.053,1.0496,1.0489,1.0525,1.0525,1.0525,1.0525,1.0525,1.0525,1.0201,1.0233,1.0244,1.0286,1.0302,1.0333,1.0347,1.0367,1.0385,1.0423,1.0447,1.046,1.0483,1.0514,1.0541,1.0546,1.0557,1.0563,1.0568,1.0536,1.0532,1.0529,1.0522,1.0564,1.0565,1.06,1.0601,1.0601]}]]